Location: Sungai Kamana Besar
(2.6333°N, 113.4333°E)
Time: 06:19:44
(UTC+00:00)

Cosmos 841 Rocket - Pass Details

Date: 29 May 2022
Orbit: 747 x 771 km, 74.0° (Epoch: 26 June)

Event Time Altitude Azimuth Distance (km) Brightness Sun altitude
Rises 12:12:04 0° 337° (NNW) 3,195 7.4 -23.9°
Reaches altitude 10° 12:14:29 10° 332° (NNW) 2,276 6.6 -24.5°
Maximum altitude 12:19:27 49° 258° (WSW) 976 4.3 -25.6°
Enters shadow 12:21:49 28° 200° (SSW) 1,388 4.7 -26.1°
